#timestamp,LO_Frequency,Hit,StdDev 
1572004815.3,285994035.4,N
1572004835.1,285994033.2,N
1572004855.9,285994035.7,N
1572004875.7,285994035.6,N
1572004895.5,285994032.8,N
1572004915.4,285994037.4,N
1572004935.2,285994034.3,N
1572004955.0,285994037.2,N
1572004955.9,285994037.2,Y
1572004975.8,286045234.7,P
1572004995.6,286045230.3,N
1572005015.4,286045230.6,N
1572005035.3,286045232.8,N
1572005055.1,286045230.2,N
1572005075.8,286045230.5,N
1572005095.7,286045230.2,N
1572005115.5,286045234.7,N
1572005135.3,286045233.5,N
1572005155.2,286045236.1,N
1572005175.0,286045233.6,N
1572005175.9,286045233.6,N
1572005195.7,286045231.9,N
1572005215.6,286045234.3,N
1572005235.4,286045234.7,N
1572005255.2,286045236.0,N
1572005275.1,286045233.4,N
1572005276.0,286045233.4,N
1572005295.8,286045233.7,N
1572005315.6,286045233.7,N
1572005335.5,286045236.1,N
1572005355.3,286045237.4,N
1572005375.1,286045239.1,N
1572005395.9,286045236.6,N
1572005415.7,286045236.5,N
1572005435.5,286045236.6,N
1572005455.4,286045236.6,N
1572005475.2,286045238.1,N
1572005495.0,286045239.5,N
1572005495.9,286045239.5,N
1572005515.8,286045236.7,Y
1572005535.6,286047002.2,P
1572005555.4,286047000.2,N
1572005575.3,286047000.9,N
1572005595.1,286047001.2,N
1572005615.8,286046998.6,N
1572005635.7,286047000.7,N
1572005655.5,286047002.6,N
1572005675.3,286047002.0,N
1572005695.2,286047002.7,N
1572005715.0,286047002.0,N
1572005715.9,286047002.0,N
1572005735.7,286047004.1,N
1572005755.6,286047001.7,N
1572005775.4,286047002.5,N
1572005795.2,286047002.1,N
1572005815.1,286047002.5,N
1572005816.0,286047002.5,N
1572005835.8,286047001.7,N
1572005855.6,286047001.5,N
1572005875.5,286047005.6,N
1572005895.3,286047004.9,N
1572005915.1,286047006.6,N
1572005935.9,286047008.2,N
1572005955.7,286047006.6,N
1572005975.5,286047009.1,N
1572005995.4,286047010.8,N
1572006015.2,286047008.2,N
1572006035.0,286047004.5,N
1572006035.9,286047004.5,N
1572006055.8,286047007.2,N
1572006075.6,286047006.6,N
1572006095.4,286047008.2,N
1572006115.3,286047008.3,N
1572006135.1,286047006.4,N
1572006155.8,286047008.7,N
1572006175.7,286047007.9,N
1572006195.5,286047008.6,Y
1572006215.3,286047003.4,P
1572006235.2,286047003.5,P
1572006255.0,286047003.8,P
1572006255.9,286047003.8,Y
1572006275.8,286046998.8,P
1572006295.6,286046997.5,N
1572006315.4,286046997.6,N
1572006335.3,286046997.3,N
1572006355.1,286046997.8,N
1572006356.0,286046997.8,N
1572006375.8,286046998.9,N
1572006395.7,286046999.0,N
1572006415.5,286046996.7,N
1572006435.3,286046996.8,N
1572006455.2,286046998.0,N
1572006475.9,286046995.8,N
1572006495.7,286046994.9,N
1572006515.6,286046995.7,N
1572006535.4,286046995.7,N
1572006555.2,286046997.2,N
1572006575.1,286046997.0,N
1572006576.0,286046997.0,N
1572006595.8,286046998.7,N
1572006615.6,286046998.7,N
1572006635.5,286046998.2,N
1572006655.3,286046998.5,N
1572006675.1,286046998.3,N
1572006695.9,286046998.3,N
1572006715.7,286046998.3,N
1572006735.5,286046996.9,N
1572006755.4,286046997.1,N
1572006775.2,286046995.0,Y
1572006795.0,286047000.5,P
1572006795.9,286047000.5,N
1572006815.8,286047000.4,N
1572006835.6,286047002.0,N
1572006855.4,286046998.4,N
1572006875.3,286046999.3,N
1572006895.1,286046998.5,N
1572006896.0,286046998.5,N
1572006915.8,286047000.7,N
1572006935.7,286047002.4,N
1572006955.5,286047004.3,N
1572006975.3,286047001.7,N
1572006995.2,286047004.4,N
1572007015.9,286047003.8,N
1572007035.7,286047003.6,N
1572007055.6,286047003.3,N
1572007075.4,286047003.1,N
1572007095.2,286047004.1,N
1572007115.1,286047003.3,N
1572007116.0,286047003.3,N
1572007135.8,286047001.4,N
1572007155.6,286047001.3,N
1572007175.5,286047006.0,N
1572007195.3,286047005.9,N
1572007215.1,286047005.7,N
1572007235.9,286047005.2,N
1572007255.7,286047001.3,N
1572007275.5,286047003.6,N
1572007295.4,286047004.4,N
1572007315.2,286047003.8,N
1572007335.0,286047003.3,N
1572007335.9,286047003.3,N
1572007355.8,286047004.2,N
1572007375.6,286047002.4,N
1572007395.4,286047001.3,N
1572007415.3,286047004.8,N
1572007435.1,286047003.6,N
1572007436.0,286047003.6,N
1572007455.8,286047006.0,Y
1572007475.7,286046999.8,P
1572007495.5,286047000.8,N
1572007515.3,286046999.7,N
1572007535.2,286047001.8,N
1572007555.9,286047002.3,N
1572007575.7,286046999.8,N
1572007595.6,286046999.8,N
1572007615.4,286047000.8,N
1572007635.2,286047000.7,N
1572007655.1,286046999.3,N
1572007656.0,286046999.3,N
1572007675.8,286046999.2,N
1572007695.6,286046997.9,N
1572007715.5,286046996.9,N
1572007735.3,286046998.5,N
1572007755.1,286047000.3,N
1572007775.9,286047000.5,N
1572007795.7,286047002.7,N
1572007815.5,286047002.7,N
1572007835.4,286047003.6,N
1572007855.2,286047001.6,N
1572007875.0,286047000.3,N
1572007875.9,286047000.3,N
1572007895.8,286047000.3,N
1572007915.6,286047002.3,N
1572007935.4,286047002.3,N
1572007955.3,286046999.7,N
1572007975.1,286047002.5,N
1572007976.0,286047002.5,N
1572007995.8,286047002.4,N
1572008015.7,286047002.1,N
1572008035.5,286047000.4,N
1572008055.3,286047000.9,N
1572008075.2,286047000.1,N
1572008095.9,286047001.9,N
1572008115.7,286046999.7,N
1572008135.6,286046998.4,N
1572008155.4,286046998.3,N
1572008175.2,286046999.4,N
1572008195.1,286047000.2,N
1572008196.0,286047000.2,N
1572008215.8,286047001.2,N
1572008235.6,286046998.2,N
1572008255.5,286047000.5,N
1572008275.3,286047002.4,N
1572008295.1,286047002.8,N
1572008315.9,286047000.7,N
1572008335.7,286047001.2,N
1572008355.5,286047001.1,N
1572008375.4,286046998.8,N
1572008395.2,286046998.9,N
